Погода в Апшеронске

Россия / Краснодарский край     44°28′05″N   39°44′12″E
темп.,
°C
ветер,
м/с
пор.,
м/с
влажн.,
%
обл.,
%
осадки,
мм/ч
давл.,
гПа
погр.,
м
11 апреля, вс
вс1100:00+4св1498100 1.6 1021153
03:00+4св1498100 1.6 1020174
06:00+4ссв1498100 0.0 1019205
09:00+6св2593100 0.0 1019331
12:00+9св3485100 0.0 1018690
15:00+8св3592100 0.2 1018520
18:00+7св2699100 2.1 1018337
21:00+7ссв1499100 3.3 1018170
12 апреля, пн
пн1200:00+7зюз1399100 0.0 1019105
03:00+6зсз1299100 0.1 101985
06:00+6ю019999 0.0 102022
09:00+8юз128999 0.0 1021439
12:00+9вюв1191100 1.3 1021219
15:00+9ююв1195100 1.9 1021135
18:00+9всв0097100 0.1 102214
21:00+8з1198100 0.3 102214
13 апреля, вт
вт1300:00+7з1299100 0.8 102287
03:00+7юз1199100 3.9 102361
06:00+7зюз1199100 1.4 102346
09:00+8юз0195100 1.4 1023148
12:00+11с1179100 0.0 1022671
15:00+11всв1181100 0.3 1022478
18:00+10св1190100 0.2 102251
21:00+8вюв0093100 0.2 102211
14 апреля, ср
ср1400:00+8юз009591 0.0 102012
03:00+8вюв0095100 0.0 102014
06:00+7з119677 0.0 101919
09:00+11зсз1184100 0.0 1019536
12:00+11зсз237995 0.5 1019756
15:00+14с1164100 0.6 1018985
18:00+11всв238965 1.2 1017126
21:00+7юв11965 2.1 101814
15 апреля, чт
чт1500:00+6ююв229620 0.0 101722
03:00+5ююв229430 0.0 101717
06:00+7вюв2389100 0.0 101656
09:00+14вюв13655 0.0 1015304
12:00+20ссз1245100 0.0 10131228
15:00+16ссв227387 1.1 1014349
18:00+15зсз2575100 2.0 1014134
21:00+10ююв1188100 2.4 101618